Location: ?
(35.4064°N, 139.3593°E)
Time: 08:38:36
(UTC+00:00)

Cosmos 2278 Rocket - Visible Passes

Search period start: 24 July 2024 00:00
Search period end: 03 August 2024 00:00
Orbit: 841 x 844 km, 71.0° (Epoch: 24 July)

Date Brightness Start Highest point End Pass type
(mag) Time Alt. Az. Time Alt. Az. Time Alt. Az.
24 Jul 2.3 10:43:59 10° S 10:49:27 54° ESE 10:54:57 10° NNE visible
24 Jul 4.7 12:29:49 10° WSW 12:33:50 20° WNW 12:37:52 10° N visible
25 Jul 2.4 10:29:17 10° S 10:34:43 51° ESE 10:40:10 10° NNE visible
25 Jul 4.7 12:14:54 10° WSW 12:19:03 21° WNW 12:23:13 10° N visible
26 Jul 2.4 10:14:35 10° S 10:19:58 48° ESE 10:25:24 10° NNE visible
26 Jul 4.7 12:00:01 10° WSW 12:04:17 21° WNW 12:08:33 10° N visible
26 Jul 5.5 19:13:27 10° NNE 19:16:27 14° NE 19:19:26 10° E visible
27 Jul 4.7 11:45:07 10° WSW 11:49:30 22° WNW 11:53:52 10° N visible
27 Jul 5.5 18:58:51 10° NNE 19:01:39 14° NE 19:04:26 10° E visible
28 Jul 4.6 11:30:15 10° WSW 11:34:42 24° WNW 11:39:12 10° N visible
28 Jul 5.6 18:44:18 10° NNE 18:46:52 13° NE 18:49:25 10° E visible
29 Jul 4.6 11:15:22 10° WSW 11:19:56 25° WNW 11:24:32 10° N visible
29 Jul 5.7 18:29:46 10° NNE 18:32:04 12° NE 18:34:22 10° ENE visible
30 Jul 4.6 11:00:31 10° WSW 11:05:09 26° WNW 11:09:51 10° N visible
30 Jul 5.7 18:15:16 10° NNE 18:17:17 12° NE 18:19:16 10° ENE visible
31 Jul 4.6 10:45:39 10° WSW 10:50:23 27° WNW 10:55:09 10° N visible
31 Jul 5.7 18:00:50 10° NE 18:02:28 11° NE 18:04:06 10° ENE visible
01 Aug 4.5 10:30:48 10° WSW 10:35:37 28° WNW 10:40:28 10° N visible
01 Aug 5.7 17:46:31 10° NE 17:47:40 11° NE 17:48:50 10° ENE visible
02 Aug 4.5 10:15:57 10° WSW 10:20:51 30° WNW 10:25:46 10° N visible
02 Aug 2.5 19:12:13 10° NNW 19:17:53 76° ENE 19:23:31 10° SSE visible
